Regional Weather Roundup
Issued by NWS

Home | Current Version | Previous Version | Text Only | Print | Product List | Glossary Off
Versions: 1 2 3 4 5 6 7 8 9 10 11 12 13 14 15 16 17 18 19 20 21 22 23 24 25 26 27 28 29 30 31 32 33 34 35 36 37 38 39 40 41 42 43 44 45 46 47 48 49 50

000
ASUS43 KIND 202309
RWRIN

WEATHER ROUNDUP FOR INDIANA
NATIONAL WEATHER SERVICE INDIANAPOLIS IN
700 PM EDT MON APR 20 2015

NOTE: "FAIR" INDICATES FEW OR NO CLOUDS BELOW 12,000 FEET WITH NO
SIGNIFICANT WEATHER AND/OR OBSTRUCTIONS TO VISIBILITY.

* - STATION DOES NOT REPORT WEATHER SUCH AS PRECIPITATION OR FOG.

+ - STATION NOT QUALITY CONTROLLED BY THE NATIONAL WEATHER SERVICE.
    USE DATA WITH CAUTION...ESPECIALLY DEWPOINT AND RELATIVE
    HUMIDITY OBSERVATIONS.

INZ001>003-010>013-019-020-210000-
NORTHWEST INDIANA

CITY           SKY/WX    TMP DP  RH WIND       PRES   REMARKS
GARY /AIRPORT/ CLOUDY    50  28  43 W30G46    29.57R
KNOX *+        CLOUDY    46  19  34 W24G31    29.57R
LA PORTE +     CLOUDY    50  34  54 W23G31    29.56R
MICHIGAN CITY+ CLOUDY    46  32  57 W17G26    29.56R
MONTICELLO +   CLOUDY    47  38  72 W18G28    29.62R
RENSSELAER +   CLOUDY    48  36  61 W26G33    29.62R
VALPARAISO     CLOUDY    48  33  56 W22G31    29.58R

$$

LMZ046-743>745-210000-
SOUTHERN LAKE MICHIGAN

STATION/POSITION TIME  TEMP    WIND        PRES    WAVE
                       AIR SEA DIR/SP/G            HT
                 (UTC) (F)     (DEG/KT/KT) (MB)    (FT)
BURNS HARBOR     2300   48     270/ 25/ 30 1001.4S
MICHIGAN CITY    2300   46     240/ 25/ 30   N/A
5NW MICH CITY    2300   45 45  270/ 17/ 23   N/A     5

$$

INZ004-005-014>016-021>024-210000-
NORTH CENTRAL INDIANA

CITY           SKY/WX    TMP DP  RH WIND       PRES   REMARKS
ELKHART        CLOUDY    48  32  53 W14G21    29.55R
GOSHEN         CLOUDY    48  36  63 W21G35    29.55R
LOGANSPORT +   CLOUDY    46  37  71 W17G28    29.63R
ROCHESTER +    PTSUNNY   50  36  57 W15G26    29.59R
SOUTH BEND     CLOUDY    48  35  60 W15       29.55R
WARSAW +       CLOUDY    46  36  66 W15       29.56R

$$

INZ006>009-017-018-025>027-210000-
NORTHEAST INDIANA

CITY           SKY/WX    TMP DP  RH WIND       PRES   REMARKS
ANGOLA *+      CLOUDY    48  39  71 W10       29.53R
AUBURN +       CLOUDY    50  37  62 W13G22    29.56R
FORT WAYNE     MOSUNNY   50  38  63 W23G39    29.57R
HUNTINGTON +   CLOUDY    49  33  54 W15G26    29.58R

$$

INZ028-029-035-036-043>045-051>053-210000-
WEST CENTRAL INDIANA

CITY           SKY/WX    TMP DP  RH WIND       PRES   REMARKS
CRAWFORDSVL +  CLOUDY    47  31  52 W20G26    29.68R
GREENCASTLE +  CLOUDY    50  32  50 W10G20    29.70R
LAFAYETTE      CLOUDY    48  36  63 W21G36    29.65R
TERRE HAUTE    CLOUDY    51  36  56 W15G31    29.72R

$$

INZ030>032-037>040-046>048-054>057-064-065-210000-
CENTRAL INDIANA

CITY           SKY/WX    TMP DP  RH WIND       PRES   REMARKS
CP ATTERBURY + CLOUDY    54  36  50 W12G23    29.68R
FISHERS *+     CLOUDY    48  39  71 W17       29.67
FRANKFORT +    MOSUNNY   49  38  65 SW25G37   29.66R
GREENWOOD *+   CLOUDY    52  34  50 W20G32    29.68R
INDIANAPOLIS   CLOUDY    51  35  54 W30G36    29.66R
-EAGLE CREEK   CLOUDY    50  38  63 W17G25    29.67R
KOKOMO *+      MOSUNNY   48  37  66 W18G26    29.62R
MARION +       CLOUDY    48  38  67 W15       29.62R
MT COMFORT *+  MOSUNNY   50  30  46 W21G29    29.66R
SHELBYVILLE    CLOUDY    54  37  52 W17G25    29.66R
ZIONSVILLE +   CLOUDY    50  35  56 W20G31    29.66R

$$

INZ033-034-041-042-049-050-058-059-210000-
EAST CENTRAL INDIANA

CITY           SKY/WX    TMP DP  RH WIND       PRES   REMARKS
MUNCIE         CLOUDY    50  36  58 W24G33    29.62R

$$

INZ060-061-067>069-081>083-085>088-210000-
SOUTHWEST INDIANA

CITY           SKY/WX    TMP DP  RH WIND       PRES   REMARKS
EVANSVILLE     PTSUNNY   57  37  47 W12G21    29.75R
HUNTINGBURG *+ PTSUNNY   55  37  50 NW17G24   29.75R
WASHINGTON +   CLOUDY    54  34  46 W16G25    29.74R

$$

INZ062-063-066-070>080-084-089>092-210000-
SOUTH CENTRAL AND SOUTHEAST INDIANA

CITY           SKY/WX    TMP DP  RH WIND       PRES   REMARKS
BEDFORD +      CLOUDY    52  37  58 W13G32    29.72R
BLOOMINGTON    CLOUDY    52  37  56 W13G25    29.70R
MADISON *+     MOSUNNY   55  34  44 W16G23    29.70R
NORTH VERNON + PTSUNNY   55  34  44 W15G25    29.69R

$$



USA.gov is the U.S. government's official web portal to all federal, state and local government web resources and services.